[[{"header":{"parameterUnit":"m.s-1","parameterCategory":1,"la1":30.2991,"la2":30.254,"lo1":-89.0895,"lo2":-89.0444,"dy":0.0017,"dx":0.0017,"nx":28,"ny":28,"refTime":"2023-09-10T21:00:00:Z","depth":0,"parameterNumber":2,"parameterNumberName":"U-component_of_WINDS"},"data":[0,0,0,0,0,0,0,0,0,0,0,0,0,0,0,0,0,0,0,0,0,0,0,0,0,0,0,0,0,0,0,0,0,0,0,0,0,0,0,0,0,0,0,0,0,0,0,0,0,0,0,0,0,0,0,0,0,0,-0.2798,-0.2797,0,-0.2753,-0.2752,-0.2752,-0.2702,-0.2701,-0.2701,-0.27,-0.2654,-0.2654,-0.2653,0,0,0,0,0,0,0,0,0,0,0,0,0,-0.2842,-0.2841,-0.2798,-0.2797,-0.2797,-0.2753,-0.2752,-0.2751,-0.2702,-0.2701,-0.2701,-0.27,-0.2654,-0.2654,-0.2653,0,0,0,0,0,0,0,0,0,0,0,0,0,-0.2812,-0.2841,-0.2798,-0.2767,-0.2764,-0.2753,-0.2752,-0.2751,-0.2702,-0.2701,-0.27,-0.2699,-0.2655,-0.2654,-0.2653,-0.2669,0,0,-0.2651,-0.265,0,0,0,0,0,0,0,0,-0.2814,-0.2811,-0.2772,-0.2769,-0.2765,-0.2732,-0.2751,-0.2724,-0.2703,-0.2726,-0.27,-0.2699,-0.2681,-0.2678,-0.2672,-0.2667,-0.2665,-0.265,-0.265,-0.265,-0.2649,0,0,0,0,0,0,0,-0.2816,-0.2812,-0.278,-0.2772,-0.2767,-0.2755,-0.275,-0.2745,-0.271,-0.2724,-0.272,-0.2715,-0.2679,-0.2673,-0.267,-0.2665,-0.265,-0.265,-0.2649,-0.2649,-0.267,-0.2671,0,0,0,0,0,0,-0.2823,-0.2814,-0.2781,-0.2779,-0.2787,-0.2755,-0.2749,-0.2744,-0.271,-0.2704,-0.2716,-0.2713,-0.2675,-0.2671,-0.2669,-0.2685,-0.265,-0.2649,-0.2648,-0.2669,-0.2671,-0.2672,0,0,0,0,0,0,-0.2824,-0.282,-0.2783,-0.2795,-0.279,-0.2756,-0.275,-0.2743,-0.2737,-0.2704,-0.2698,-0.2716,-0.2674,-0.267,-0.2669,-0.2683,-0.2648,-0.2648,-0.2668,-0.267,-0.2671,-0.272,0,0,0,0,0,0,-0.2825,-0.2821,-0.2827,-0.2796,-0.2789,-0.2785,-0.2751,-0.2743,-0.2736,-0.2731,-0.2703,-0.2697,-0.2673,-0.2671,-0.2669,-0.2681,-0.2647,-0.2667,-0.2669,-0.2671,-0.2717,-0.2723,-0.2728,0,0,0,0,0,-0.2827,-0.2843,-0.2828,-0.2824,-0.2796,-0.2786,-0.2782,-0.2754,-0.2737,-0.2743,-0.2721,-0.2698,-0.2682,-0.2671,-0.2668,-0.2681,-0.2666,-0.2668,-0.2671,-0.2714,-0.2721,-0.2728,0,0,0,0,0,0,-0.2877,-0.2838,-0.2821,-0.2827,-0.281,-0.2778,-0.2784,-0.2762,-0.275,-0.2747,-0.2712,-0.2706,-0.271,-0.2695,-0.2684,-0.2695,-0.267,-0.2672,-0.2704,-0.2711,-0.2717,-0.2721,-0.2646,0,0,0,0,0,-0.2888,-0.2883,-0.285,-0.2858,-0.285,-0.2819,-0.2813,-0.2793,-0.2774,-0.2767,-0.2745,-0.2728,-0.2719,-0.2714,-0.2704,-0.2714,-0.2707,-0.2721,-0.2726,-0.2731,-0.2734,-0.2737,-0.2743,-0.268,-0.268,-0.268,0,0,-0.2913,-0.2891,-0.289,-0.2868,-0.2852,-0.2848,-0.2813,-0.281,-0.2807,-0.2766,-0.2765,-0.2748,-0.2727,-0.2731,-0.2732,-0.2719,-0.2749,-0.2734,-0.2738,-0.2738,-0.2741,-0.2747,-0.2752,-0.2681,-0.2681,-0.2681,0,0,-0.2954,-0.2937,-0.2942,-0.2927,-0.2904,-0.2883,-0.2884,-0.2854,-0.2842,-0.2839,-0.2809,-0.2804,-0.2789,-0.2775,-0.2766,-0.2801,-0.2779,-0.2798,-0.2828,-0.2832,-0.2837,-0.2842,-0.2855,-0.286,-0.2801,-0.2801,-0.2801,0,-0.2988,-0.298,-0.2948,-0.2946,-0.2938,-0.29,-0.2905,-0.2892,-0.2867,-0.2862,-0.2847,-0.2827,-0.281,-0.2811,-0.2819,-0.2813,-0.2813,-0.2802,-0.2839,-0.2843,-0.2847,-0.2859,-0.2864,-0.2803,-0.2803,-0.2803,-0.2803,0,-0.3022,-0.3017,-0.3023,-0.3,-0.2991,-0.2993,-0.2962,-0.2957,-0.2937,-0.2917,-0.2915,-0.2892,-0.2877,-0.2875,-0.2855,-0.2873,-0.2866,-0.2846,-0.2821,-0.2856,-0.2867,-0.2871,-0.2807,-0.2806,-0.2806,-0.2805,0,0,-0.3096,-0.3053,-0.3056,-0.3045,-0.3016,-0.3011,-0.3011,-0.2995,-0.2992,-0.2976,-0.2975,-0.2962,-0.2943,-0.2933,-0.2911,-0.2915,-0.2944,-0.2894,-0.2893,-0.2905,-0.2962,-0.2979,-0.2984,-0.2928,-0.2929,-0.293,-0.2964,0,-0.3133,-0.3131,-0.3101,-0.3107,-0.3102,-0.3065,-0.3065,-0.3047,-0.3028,-0.3021,-0.3,-0.2992,-0.2967,-0.296,-0.2962,-0.294,-0.2955,-0.2937,-0.2928,-0.2928,-0.2936,-0.299,-0.3007,-0.3041,-0.2968,-0.2969,-0.2969,0,-0.3177,-0.3163,-0.3168,-0.3138,-0.3135,-0.3135,-0.3118,-0.3112,-0.309,-0.3076,-0.3064,-0.3039,-0.3036,-0.3012,-0.3008,-0.2996,-0.299,-0.2978,-0.2979,-0.2978,-0.2952,-0.2992,-0.3051,-0.3057,-0.2976,-0.2975,-0.2975,0,-0.3232,-0.3213,-0.3214,-0.3205,-0.317,-0.3171,-0.3157,-0.3134,-0.3126,-0.3111,-0.3106,-0.3091,-0.3083,-0.3072,-0.3043,-0.3028,-0.3043,-0.3016,-0.3031,-0.3032,-0.3037,-0.3038,-0.3098,-0.3032,-0.3032,-0.3031,-0.3031,0,-0.3277,-0.3282,-0.3238,-0.3239,-0.3243,-0.3208,-0.3214,-0.3195,-0.3175,-0.3172,-0.3139,-0.3136,-0.3098,-0.309,-0.3068,-0.3068,-0.3064,-0.3053,-0.3047,-0.3057,-0.3059,-0.3054,-0.3051,-0.3033,-0.3033,-0.3032,-0.3032,0,-0.334,-0.331,-0.3309,-0.3275,-0.3267,-0.3271,-0.3242,-0.3242,-0.322,-0.3215,-0.3212,-0.3178,-0.3168,-0.3138,-0.312,-0.3105,-0.3112,-0.31,-0.312,-0.3116,-0.3134,-0.3133,-0.3194,-0.32,-0.3129,-0.313,-0.313,0,-0.3372,-0.3375,-0.3341,-0.3336,-0.3323,-0.3315,-0.3307,-0.3273,-0.3266,-0.3241,-0.3243,-0.323,-0.3218,-0.3203,-0.3177,-0.3162,-0.3151,-0.3173,-0.3149,-0.3158,-0.3152,-0.3153,-0.3153,-0.3179,-0.318,-0.3181,-0.3181,0,-0.3432,-0.3417,-0.3406,-0.339,-0.3381,-0.3367,-0.3351,-0.3349,-0.331,-0.3304,-0.3293,-0.3283,-0.3264,-0.3252,-0.3234,-0.3218,-0.3194,-0.3189,-0.3192,-0.3203,-0.3214,-0.3209,-0.3135,-0.3188,-0.3187,-0.3187,-0.3187,-0.3186,-0.3481,-0.3481,-0.3458,-0.3447,-0.3431,-0.3416,-0.3414,-0.3391,-0.3381,-0.3363,-0.3343,-0.3335,-0.3312,-0.3284,-0.3271,-0.3263,-0.325,-0.3254,-0.3256,-0.3258,-0.3262,-0.3214,-0.326,-0.3259,-0.3259,-0.3259,-0.3259,0,-0.354,-0.3523,-0.3513,-0.3491,-0.3482,-0.3459,-0.3439,-0.3434,-0.3426,-0.3407,-0.3396,-0.3383,-0.337,-0.3342,-0.3327,-0.3326,-0.3314,-0.3323,-0.3324,-0.3321,-0.3275,-0.3274,-0.3333,-0.3333,-0.3333,-0.3333,-0.3333,-0.3333,-0.357,-0.357,-0.3552,-0.3544,-0.3526,-0.3517,-0.3508,-0.3494,-0.3479,-0.3466,-0.3455,-0.3436,-0.3413,-0.3396,-0.3383,-0.3375,-0.3372,-0.3385,-0.3373,-0.3331,-0.3324,-0.3317,-0.3317,-0.3384,-0.3384,-0.342,-0.342,-0.3421]},{"header":{"parameterUnit":"m.s-1","parameterCategory":1,"la1":30.2991,"la2":30.254,"lo1":-89.0895,"lo2":-89.0444,"dy":0.0017,"dx":0.0017,"nx":28,"ny":28,"refTime":"2023-09-10T21:00:00:Z","depth":0,"parameterNumber":3,"parameterNumberName":"V-component_of_WINDS"},"data":[0,0,0,0,0,0,0,0,0,0,0,0,0,0,0,0,0,0,0,0,0,0,0,0,0,0,0,0,0,0,0,0,0,0,0,0,0,0,0,0,0,0,0,0,0,0,0,0,0,0,0,0,0,0,0,0,0,0,-3.1052,-3.1052,0,-3.1082,-3.1083,-3.1083,-3.1049,-3.1047,-3.1046,-3.1045,-3.1073,-3.1075,-3.1077,0,0,0,0,0,0,0,0,0,0,0,0,0,-3.0961,-3.0963,-3.1052,-3.1052,-3.1052,-3.1082,-3.1083,-3.1083,-3.1049,-3.1047,-3.1046,-3.1044,-3.1073,-3.1075,-3.1077,0,0,0,0,0,0,0,0,0,0,0,0,0,-3.0997,-3.0964,-3.1052,-3.1039,-3.1038,-3.1082,-3.1083,-3.1083,-3.1049,-3.1047,-3.1045,-3.1044,-3.1072,-3.1075,-3.1078,-3.1135,0,0,-3.1087,-3.1088,0,0,0,0,0,0,0,0,-3.0995,-3.1,-3.1041,-3.104,-3.1039,-3.106,-3.1061,-3.11,-3.105,-3.1045,-3.1045,-3.1043,-3.107,-3.1073,-3.1083,-3.1136,-3.1137,-3.1087,-3.1089,-3.109,-3.1091,0,0,0,0,0,0,0,-3.0993,-3.0999,-3.1064,-3.1041,-3.104,-3.1031,-3.1034,-3.1068,-3.1068,-3.1045,-3.1043,-3.1047,-3.1069,-3.108,-3.1084,-3.1138,-3.1087,-3.109,-3.1091,-3.1093,-3.1239,-3.1241,0,0,0,0,0,0,-3.0992,-3.0997,-3.1063,-3.1065,-3.1012,-3.1034,-3.1038,-3.1055,-3.1068,-3.1068,-3.1049,-3.1045,-3.1076,-3.108,-3.1084,-3.1152,-3.109,-3.1093,-3.1094,-3.1237,-3.124,-3.1242,0,0,0,0,0,0,-3.099,-3.0998,-3.1061,-3.103,-3.1038,-3.1038,-3.1058,-3.1057,-3.1068,-3.107,-3.107,-3.106,-3.1075,-3.108,-3.1123,-3.1153,-3.1094,-3.1097,-3.1235,-3.1238,-3.1241,-3.1289,0,0,0,0,0,0,-3.0988,-3.0998,-3.102,-3.1031,-3.1039,-3.11,-3.106,-3.1059,-3.1073,-3.1069,-3.1081,-3.1081,-3.1074,-3.1119,-3.1126,-3.1156,-3.1099,-3.1232,-3.1236,-3.124,-3.1284,-3.1293,-3.1301,0,0,0,0,0,-3.0985,-3.1031,-3.1021,-3.1029,-3.1067,-3.1102,-3.1107,-3.1098,-3.1076,-3.1098,-3.1099,-3.108,-3.1148,-3.1123,-3.1131,-3.1163,-3.123,-3.1235,-3.1239,-3.1281,-3.1291,-3.13,0,0,0,0,0,0,-3.1023,-3.1033,-3.1021,-3.1073,-3.1087,-3.1096,-3.1124,-3.111,-3.113,-3.1125,-3.1113,-3.1116,-3.1162,-3.1166,-3.1138,-3.1218,-3.1185,-3.1192,-3.1214,-3.1224,-3.1232,-3.123,-3.1102,0,0,0,0,0,-3.1037,-3.1065,-3.1072,-3.1117,-3.1125,-3.1123,-3.1138,-3.1131,-3.1144,-3.115,-3.1154,-3.1167,-3.1192,-3.1208,-3.123,-3.1285,-3.1287,-3.131,-3.1318,-3.1325,-3.1331,-3.1361,-3.1371,-3.1258,-3.1258,-3.1258,0,0,-3.1067,-3.1076,-3.1094,-3.1125,-3.1135,-3.1164,-3.1128,-3.116,-3.1182,-3.1154,-3.1195,-3.1199,-3.1213,-3.1262,-3.1283,-3.1267,-3.1363,-3.1331,-3.1336,-3.1339,-3.1367,-3.1377,-3.1387,-3.1261,-3.126,-3.126,0,0,-3.1137,-3.1146,-3.1186,-3.1197,-3.1213,-3.1211,-3.1221,-3.1232,-3.1234,-3.1275,-3.1255,-3.128,-3.1322,-3.1333,-3.1344,-3.1419,-3.1402,-3.1426,-3.1469,-3.1498,-3.1507,-3.1515,-3.1542,-3.1552,-3.1432,-3.1432,-3.1432,0,-3.1172,-3.1216,-3.1207,-3.1241,-3.1255,-3.1233,-3.1272,-3.1283,-3.1305,-3.1315,-3.1296,-3.1349,-3.1357,-3.1408,-3.1427,-3.1436,-3.1447,-3.1425,-3.1507,-3.1514,-3.1522,-3.1548,-3.1558,-3.1435,-3.1435,-3.1435,-3.1434,0,-3.1259,-3.129,-3.1319,-3.1343,-3.136,-3.1396,-3.1392,-3.1411,-3.1402,-3.1402,-3.1445,-3.1453,-3.1477,-3.1489,-3.148,-3.1539,-3.1529,-3.1508,-3.1475,-3.1535,-3.156,-3.157,-3.1439,-3.1438,-3.1437,-3.1437,0,0,-3.1353,-3.1372,-3.1383,-3.1394,-3.141,-3.1434,-3.1469,-3.1494,-3.151,-3.1526,-3.1555,-3.1592,-3.1573,-3.1586,-3.1578,-3.1603,-3.1663,-3.158,-3.158,-3.1596,-3.173,-3.1746,-3.1758,-3.1652,-3.1654,-3.1655,-3.1729,0,-3.1424,-3.1487,-3.1481,-3.154,-3.1568,-3.1548,-3.1578,-3.1591,-3.1593,-3.1616,-3.1617,-3.1644,-3.1617,-3.1625,-3.1649,-3.1651,-3.169,-3.1645,-3.1679,-3.1681,-3.1677,-3.177,-3.1787,-3.1856,-3.1738,-3.174,-3.1741,0,-3.1516,-3.1537,-3.1599,-3.1612,-3.1624,-3.1652,-3.1674,-3.1697,-3.1711,-3.1711,-3.1725,-3.1713,-3.1748,-3.1713,-3.1761,-3.1731,-3.1744,-3.1747,-3.175,-3.1753,-3.1715,-3.1777,-3.1878,-3.1889,-3.1756,-3.1755,-3.1754,0,-3.158,-3.1623,-3.1667,-3.1676,-3.1692,-3.1712,-3.172,-3.1732,-3.1748,-3.1767,-3.1777,-3.1799,-3.1812,-3.183,-3.1824,-3.1799,-3.1873,-3.1838,-3.1873,-3.1874,-3.1891,-3.189,-3.1996,-3.1898,-3.1898,-3.1897,-3.1897,0,-3.166,-3.17,-3.1696,-3.1723,-3.1766,-3.1758,-3.1801,-3.1805,-3.1816,-3.1843,-3.1826,-3.1851,-3.1841,-3.1866,-3.1861,-3.1902,-3.1908,-3.1908,-3.1906,-3.191,-3.191,-3.1919,-3.1915,-3.19,-3.19,-3.1899,-3.1899,0,-3.1739,-3.1739,-3.1785,-3.1796,-3.18,-3.1832,-3.1841,-3.1866,-3.1866,-3.19,-3.1908,-3.1908,-3.1936,-3.1932,-3.1962,-3.1959,-3.2011,-3.2003,-3.2007,-3.2005,-3.2041,-3.2038,-3.2158,-3.2173,-3.2064,-3.2065,-3.2066,0,-3.1791,-3.1822,-3.1837,-3.1854,-3.1864,-3.1891,-3.1908,-3.19,-3.1918,-3.1937,-3.1959,-3.1986,-3.2007,-3.2053,-3.2055,-3.2079,-3.2072,-3.2112,-3.2075,-3.2078,-3.2074,-3.2072,-3.2076,-3.212,-3.2121,-3.2122,-3.2123,0,-3.1884,-3.1882,-3.1907,-3.1932,-3.1953,-3.1972,-3.1988,-3.2003,-3.1997,-3.2018,-3.2047,-3.2064,-3.2096,-3.2123,-3.2145,-3.2151,-3.2137,-3.2134,-3.2144,-3.2149,-3.215,-3.2151,-3.2027,-3.2132,-3.2131,-3.213,-3.213,-3.2129,-3.1952,-3.1978,-3.1993,-3.2022,-3.2034,-3.2051,-3.2075,-3.2079,-3.2104,-3.213,-3.2124,-3.2157,-3.217,-3.2199,-3.2208,-3.2233,-3.2218,-3.2232,-3.2236,-3.224,-3.2245,-3.2145,-3.2237,-3.2237,-3.2237,-3.2236,-3.2236,0,-3.2045,-3.2054,-3.208,-3.2105,-3.2127,-3.2112,-3.213,-3.215,-3.218,-3.2194,-3.2216,-3.2249,-3.2276,-3.228,-3.2305,-3.2324,-3.2318,-3.2331,-3.233,-3.2332,-3.2256,-3.2246,-3.2336,-3.2336,-3.2336,-3.2336,-3.2336,-3.2336,-3.2095,-3.214,-3.214,-3.2189,-3.2198,-3.2231,-3.2243,-3.2258,-3.227,-3.2309,-3.2331,-3.2334,-3.2345,-3.237,-3.2393,-3.2394,-3.2404,-3.242,-3.2418,-3.2347,-3.2337,-3.2328,-3.2318,-3.2422,-3.2422,-3.2492,-3.2493,-3.2494]}]]